CDT,Max TemperatureF,Mean TemperatureF,Min TemperatureF,Max Dew PointF,MeanDew PointF,Min DewpointF,Max Humidity, Mean Humidity, Min Humidity, Max Sea Level PressureIn, Mean Sea Level PressureIn, Min Sea Level PressureIn, Max VisibilityMiles, Mean VisibilityMiles, Min VisibilityMiles, Max Wind SpeedMPH, Mean Wind SpeedMPH, Max Gust SpeedMPH,PrecipitationIn, CloudCover, Events, WindDirDegrees
2012-7-1,93,82,71,72,68,65,84,62,41,29.91,29.86,29.82,10,10,10,15,5,22,0.00,0,,139
2012-7-2,99,88,77,73,71,69,84,61,39,29.84,29.80,29.73,10,9,7,15,8,23,0.00,0,,190
2012-7-3,96,81,69,77,70,63,93,70,51,29.87,29.77,29.69,10,10,8,18,11,33,0.03,2,Rain-Thunderstorm,113
2012-7-4,100,90,82,77,74,71,82,62,42,29.77,29.73,29.70,10,10,9,16,7,23,0.00,0,Thunderstorm,191
2012-7-5,93,86,79,75,71,65,82,62,41,29.93,29.87,29.78,10,10,7,10,6,,0.00,0,,15
2012-7-6,102,85,68,76,69,61,88,63,37,30.01,29.90,29.81,10,9,2,15,6,24,0.00,2,Rain-Thunderstorm,75
2012-7-7,86,74,64,64,60,51,94,66,34,30.12,30.07,29.99,10,10,9,13,10,22,0.03,3,Rain-Thunderstorm,20
2012-7-8,89,80,71,64,61,57,75,55,36,30.16,30.12,30.05,10,10,8,10,5,16,0.00,0,,326
2012-7-9,86,75,66,64,56,49,73,49,29,30.13,30.11,30.09,10,10,10,14,6,22,0.00,1,,359
2012-7-10,89,76,64,61,54,45,75,48,23,30.16,30.12,30.08,10,10,10,9,3,,0.00,1,,101
2012-7-11,89,76,64,60,56,51,87,50,30,30.14,30.09,30.02,10,10,10,13,4,21,0.00,1,,202
2012-7-12,91,79,68,64,60,57,73,54,36,30.03,29.99,29.94,10,10,10,18,6,25,0.00,1,,177
2012-7-13,91,79,69,68,65,63,84,69,46,29.99,29.94,29.88,10,10,4,16,8,22,0.02,3,Rain-Thunderstorm,129
2012-7-14,93,78,66,69,66,64,90,61,41,29.99,29.97,29.95,10,9,8,10,5,18,0.00,0,,329
2012-7-15,93,80,70,69,67,62,87,63,38,30.03,29.98,29.91,9,7,4,12,3,,0.00,0,,158
2012-7-16,99,88,77,69,65,61,74,50,29,29.90,29.78,29.71,10,10,9,24,11,32,0.00,0,,211
2012-7-17,95,85,75,72,70,67,82,66,47,29.86,29.78,29.73,10,10,7,13,6,21,0.00,1,,25
2012-7-18,84,76,71,70,68,66,88,78,60,29.92,29.87,29.81,10,10,7,18,9,29,0.00,4,Rain-Thunderstorm,64
2012-7-19,86,78,71,67,66,64,87,71,49,30.05,29.99,29.92,10,9,6,8,4,,0.00,5,,50
2012-7-20,89,78,68,66,63,60,81,60,44,30.14,30.06,30.00,10,10,2,14,7,22,0.00,0,Thunderstorm,176
2012-7-21,89,80,71,70,68,65,94,74,49,30.07,30.01,29.94,10,9,2,14,6,20,0.17,3,Rain-Thunderstorm,113
2012-7-22,91,82,75,74,70,66,84,68,49,29.97,29.91,29.85,10,10,10,12,6,,0.00,1,,187
2012-7-23,98,84,73,74,68,59,100,63,29,29.96,29.91,29.87,10,9,2,12,3,,0.00,1,Rain-Thunderstorm,350
2012-7-24,84,76,71,72,70,64,94,85,66,30.00,29.92,29.76,10,7,1,16,5,23,1.64,4,Rain-Thunderstorm,97
2012-7-25,93,83,75,74,71,69,84,70,47,29.73,29.63,29.57,10,10,10,14,8,20,0.01,1,Rain,243
2012-7-26,86,76,68,71,60,57,82,59,38,29.82,29.73,29.64,10,10,10,15,9,29,0.00,1,Rain,293
2012-7-27,80,72,64,61,60,58,90,72,50,30.10,29.97,29.83,10,10,10,12,5,,0.00,3,,357
2012-7-28,84,73,62,67,62,59,96,68,46,30.13,30.07,29.99,10,9,4,14,4,,0.00,1,,176
2012-7-29,82,75,68,68,66,65,94,84,58,30.04,30.00,29.93,10,7,2,9,5,,0.82,5,Rain,143
2012-7-30,90,78,66,70,65,59,93,68,39,29.94,29.89,29.86,10,9,4,13,8,20,0.00,0,,276
2012-7-31,88,76,66,65,63,60,87,64,40,30.00,29.96,29.93,10,10,8,7,3,,0.00,0,,1